Flag for United Arab Emirates Weather past 2 weeks in Abu Dhabi, Abu Dhabi, United Arab Emirates

Now
97 °F

Clear.


Feels Like: 107 °F
Forecast: 91 / 114 °F
Wind: 9 mph from North

Location: Abu Dhabi Bateen Airport

Current Time: Aug 20, 2014 at 7:43:08 PM

Latest Report: Aug 20, 2014 at 7:00 PM


Visibility: 6 mi

Pressure: 29.62 "Hg

Humidity: 47%

Dew point: 73 °F

Location of Abu DhabiLocation

Historic Weather in Abu Dhabi — Graph

°F

Abu Dhabi temperature yesterday

Maximum temperature yesterday: 108 °F (at 3:00 PM)
Minimum temperature yesterday: 93 °F (at 6:00 AM)
Average temperature yesterday: 98 °F

Past Weeks' High & Low Weather Summary

 TemperatureHumidityPressure
High117 °F (Aug 17, 2:00 PM)89% (Aug 9, 7:00 AM)29.74 "Hg (Aug 9, 7:00 AM)
Low86 °F (Aug 6, 5:00 AM)13% (Aug 17, 2:00 PM)29.36 "Hg (Aug 5, 6:00 PM)
Average96 °F56%29.48 "Hg
* Reported Aug 5 6:00 PM — Aug 20 6:00 PM, Abu Dhabi, Weather by CustomWeather, © 2014

Note: Actual official high and low records may vary slightly from our data, if they occured in-between our weather recording intervals... More about our weather records

Advertising

Abu Dhabi weather history for previous 24 hours

 ConditionsComfort  
Time TempWeatherWind HumidityBarometerVisibility
6:00 PM
Aug 20
100 °FClear.10 mph37%29.62 "Hg6 mi
5:00 PM104 °FClear.13 mph28%29.62 "Hg6 mi
4:00 PM106 °FClear.12 mph25%29.62 "Hg5 mi
3:00 PM108 °FClear.6 mph20%29.65 "Hg5 mi
2:00 PM108 °FClear.9 mph20%29.65 "Hg6 mi
1:00 PM106 °FClear.9 mph22%29.68 "Hg5 mi
12:00 PM102 °FClear.7 mph26%29.71 "Hg5 mi
10:00 AM97 °FClear.15 mph34%N/A4 mi
9:00 AM93 °FClear.15 mph41%29.74 "Hg5 mi
8:00 AM91 °FClear.13 mph46%29.71 "Hg5 mi
7:00 AM91 °FClear.15 mph46%29.71 "Hg5 mi
6:00 AM93 °FSunny.12 mph39%29.68 "Hg10 mi
5:00 AM95 °FClear.9 mph32%29.68 "Hg5 mi
4:00 AM95 °FClear.8 mph36%29.68 "Hg5 mi
3:00 AM95 °FClear.7 mph36%29.65 "Hg10 mi
2:00 AM95 °FClear.5 mph47%29.68 "Hg5 mi
1:00 AM95 °FClear.3 mph47%29.68 "Hg5 mi
12:00 AM95 °FClear.3 mph53%29.68 "Hg4 mi
11:00 PM
Aug 19
95 °FClear.5 mph63%29.68 "Hg4 mi
10:00 PM95 °FClear.6 mph67%29.68 "Hg4 mi
9:00 PM95 °FClear.7 mph67%29.68 "Hg4 mi
8:00 PM95 °FClear.7 mph63%29.68 "Hg4 mi
7:00 PM97 °FClear.8 mph56%29.65 "Hg4 mi
Weather by CustomWeather, © 2014

See weather overviewHow to use our weather pages